Time,TemperatureF,DewpointF,PressureIn,WindDirection,WindDirectionDegrees,WindSpeedMPH,WindSpeedGustMPH,Humidity,HourlyPrecipIn,Conditions,Clouds,dailyrainin,SoftwareType,DateUTC
2017-02-23 00:04:00,23.6,18.4,30.00,West,274,8.0,11.0,80,0.00,,---,0.00,VWS V15.00,2017-02-23 08:04:00,
2017-02-23 00:09:00,23.5,18.0,30.00,West,275,9.0,9.0,79,0.00,,---,0.00,VWS V15.00,2017-02-23 08:09:00,
2017-02-23 00:14:00,23.4,17.6,30.00,West,281,6.0,9.0,78,0.00,,---,0.00,VWS V15.00,2017-02-23 08:14:00,
2017-02-23 00:19:00,23.3,17.2,30.00,West,277,8.0,9.0,77,0.00,,---,0.00,VWS V15.00,2017-02-23 08:19:00,
2017-02-23 00:24:00,23.4,17.3,30.00,West,269,12.0,15.0,77,0.00,,---,0.00,VWS V15.00,2017-02-23 08:24:00,
2017-02-23 00:29:00,23.4,17.3,30.00,West,278,13.0,14.0,77,0.00,,---,0.00,VWS V15.00,2017-02-23 08:29:00,
2017-02-23 00:34:00,23.5,17.1,30.00,WNW,284,11.0,15.0,76,0.00,,---,0.00,VWS V15.00,2017-02-23 08:34:00,
2017-02-23 00:39:00,23.4,17.3,30.00,WNW,284,9.0,11.0,77,0.00,,---,0.00,VWS V15.00,2017-02-23 08:39:00,
2017-02-23 00:44:00,23.3,17.2,30.00,West,275,5.0,9.0,77,0.00,,---,0.00,VWS V15.00,2017-02-23 08:44:00,
2017-02-23 00:49:00,23.0,16.6,30.00,NW,319,1.0,7.0,76,0.00,,---,0.00,VWS V15.00,2017-02-23 08:49:00,
2017-02-23 00:54:00,22.7,16.0,30.01,NW,325,0.0,3.0,75,0.00,,---,0.00,VWS V15.00,2017-02-23 08:54:00,
2017-02-23 00:59:00,22.7,16.3,30.01,NW,324,2.0,2.0,76,0.00,,---,0.00,VWS V15.00,2017-02-23 08:59:00,
2017-02-23 01:04:00,22.4,16.3,30.01,NW,324,0.0,2.0,77,0.00,,---,0.00,VWS V15.00,2017-02-23 09:04:00,
2017-02-23 01:09:00,22.1,16.3,30.01,NW,323,1.0,3.0,78,0.00,,---,0.00,VWS V15.00,2017-02-23 09:09:00,
2017-02-23 01:14:00,21.9,16.1,30.01,NW,323,1.0,3.0,78,0.00,,---,0.00,VWS V15.00,2017-02-23 09:14:00,
2017-02-23 01:19:00,24.4,16.4,30.00,NNW,329,1.0,2.0,71,0.00,,---,0.00,VWS V15.00,2017-02-23 09:19:00,
2017-02-23 01:24:00,24.6,16.5,30.01,West,269,3.0,4.0,71,0.00,,---,0.00,VWS V15.00,2017-02-23 09:24:00,
2017-02-23 01:29:00,24.7,16.3,30.01,West,280,6.0,8.0,70,0.00,,---,0.00,VWS V15.00,2017-02-23 09:29:00,
2017-02-23 01:34:00,24.6,16.5,30.01,NNW,344,2.0,5.0,71,0.00,,---,0.00,VWS V15.00,2017-02-23 09:34:00,
2017-02-23 01:39:00,24.8,16.4,30.01,NNW,343,4.0,5.0,70,0.00,,---,0.00,VWS V15.00,2017-02-23 09:39:00,
2017-02-23 01:44:00,25.0,16.6,30.01,NNE,28,4.0,5.0,70,0.00,,---,0.00,VWS V15.00,2017-02-23 09:44:00,
2017-02-23 01:49:00,24.8,16.8,30.01,NNE,28,2.0,3.0,71,0.00,,---,0.00,VWS V15.00,2017-02-23 09:49:00,
2017-02-23 01:54:00,22.0,16.2,30.01,NNE,28,1.0,3.0,78,0.00,,---,0.00,VWS V15.00,2017-02-23 09:54:00,
2017-02-23 01:59:00,21.9,16.1,30.01,ENE,57,3.0,3.0,78,0.00,,---,0.00,VWS V15.00,2017-02-23 09:59:00,
2017-02-23 02:04:00,22.0,16.2,30.00,NNE,20,0.0,4.0,78,0.00,,---,0.00,VWS V15.00,2017-02-23 10:04:00,
2017-02-23 02:09:00,22.3,16.5,30.00,East,96,0.0,5.0,78,0.00,,---,0.00,VWS V15.00,2017-02-23 10:09:00,
2017-02-23 02:14:00,22.4,16.3,30.00,East,96,0.0,0.0,77,0.00,,---,0.00,VWS V15.00,2017-02-23 10:14:00,
2017-02-23 02:19:00,22.3,16.2,30.00,East,96,0.0,1.0,77,0.00,,---,0.00,VWS V15.00,2017-02-23 10:19:00,
2017-02-23 02:24:00,22.3,16.2,30.00,North,360,5.0,6.0,77,0.00,,---,0.00,VWS V15.00,2017-02-23 10:24:00,
2017-02-23 02:29:00,22.2,16.1,30.00,North,360,0.0,0.0,77,0.00,,---,0.00,VWS V15.00,2017-02-23 10:29:00,
2017-02-23 02:34:00,22.1,16.0,30.00,North,360,0.0,1.0,77,0.00,,---,0.00,VWS V15.00,2017-02-23 10:34:00,
2017-02-23 02:39:00,22.0,15.9,30.00,North,360,0.0,0.0,77,0.00,,---,0.00,VWS V15.00,2017-02-23 10:39:00,
2017-02-23 02:44:00,21.8,15.7,30.00,North,360,0.0,0.0,77,0.00,,---,0.00,VWS V15.00,2017-02-23 10:44:00,
2017-02-23 02:49:00,21.6,15.8,30.00,North,360,0.0,0.0,78,0.00,,---,0.00,VWS V15.00,2017-02-23 10:49:00,
2017-02-23 02:54:00,21.4,15.3,30.00,North,360,1.0,2.0,77,0.00,,---,0.00,VWS V15.00,2017-02-23 10:54:00,
2017-02-23 02:59:00,21.2,15.4,30.00,North,360,1.0,2.0,78,0.00,,---,0.00,VWS V15.00,2017-02-23 10:59:00,
2017-02-23 03:04:00,21.1,15.3,30.00,North,360,0.0,2.0,78,0.00,,---,0.00,VWS V15.00,2017-02-23 11:04:00,
2017-02-23 03:09:00,21.0,15.5,30.00,North,355,0.0,1.0,79,0.00,,---,0.00,VWS V15.00,2017-02-23 11:09:00,
2017-02-23 03:14:00,20.9,15.7,30.01,North,355,0.0,0.0,80,0.00,,---,0.00,VWS V15.00,2017-02-23 11:14:00,
2017-02-23 03:19:00,21.1,15.9,30.01,North,355,0.0,2.0,80,0.00,,---,0.00,VWS V15.00,2017-02-23 11:19:00,
2017-02-23 03:24:00,21.1,15.9,30.01,North,355,2.0,4.0,80,0.00,,---,0.00,VWS V15.00,2017-02-23 11:24:00,
2017-02-23 03:29:00,21.1,15.6,30.01,SSW,209,0.0,5.0,79,0.00,,---,0.00,VWS V15.00,2017-02-23 11:29:00,
2017-02-23 03:34:00,21.1,15.3,30.01,WNW,300,0.0,0.0,78,0.00,,---,0.00,VWS V15.00,2017-02-23 11:34:00,
2017-02-23 03:39:00,21.1,15.6,30.01,WNW,300,1.0,2.0,79,0.00,,---,0.00,VWS V15.00,2017-02-23 11:39:00,
2017-02-23 03:44:00,21.1,15.6,30.01,WNW,300,2.0,2.0,79,0.00,,---,0.00,VWS V15.00,2017-02-23 11:44:00,
2017-02-23 03:49:00,21.1,15.6,30.01,WNW,300,1.0,1.0,79,0.00,,---,0.00,VWS V15.00,2017-02-23 11:49:00,
2017-02-23 03:54:00,21.1,15.6,30.02,WNW,300,2.0,2.0,79,0.00,,---,0.00,VWS V15.00,2017-02-23 11:54:00,
2017-02-23 03:59:00,21.2,16.0,30.01,WNW,300,0.0,1.0,80,0.00,,---,0.00,VWS V15.00,2017-02-23 11:59:00,
2017-02-23 04:04:00,21.2,16.0,30.01,WNW,300,0.0,0.0,80,0.00,,---,0.00,VWS V15.00,2017-02-23 12:04:00,
2017-02-23 04:09:00,21.4,16.2,30.01,WNW,300,0.0,0.0,80,0.00,,---,0.00,VWS V15.00,2017-02-23 12:09:00,
2017-02-23 04:14:00,21.5,16.0,30.01,WNW,290,6.0,6.0,79,0.00,,---,0.00,VWS V15.00,2017-02-23 12:14:00,
2017-02-23 04:19:00,21.6,16.1,30.02,WNW,290,0.0,0.0,79,0.00,,---,0.00,VWS V15.00,2017-02-23 12:19:00,
2017-02-23 04:24:00,21.6,16.1,30.02,WNW,290,2.0,3.0,79,0.00,,---,0.00,VWS V15.00,2017-02-23 12:24:00,
2017-02-23 04:29:00,21.3,15.5,30.02,NW,310,3.0,4.0,78,0.00,,---,0.00,VWS V15.00,2017-02-23 12:29:00,
2017-02-23 04:34:00,21.1,15.6,30.02,NW,315,3.0,4.0,79,0.00,,---,0.00,VWS V15.00,2017-02-23 12:34:00,
2017-02-23 04:39:00,21.4,15.9,30.02,NNW,348,1.0,5.0,79,0.00,,---,0.00,VWS V15.00,2017-02-23 12:39:00,
2017-02-23 04:44:00,21.9,16.1,30.02,West,267,11.0,11.0,78,0.00,,---,0.00,VWS V15.00,2017-02-23 12:44:00,
2017-02-23 04:49:00,22.5,16.1,30.02,West,273,4.0,9.0,76,0.00,,---,0.00,VWS V15.00,2017-02-23 12:49:00,
2017-02-23 04:54:00,22.9,16.2,30.02,West,270,5.0,9.0,75,0.00,,---,0.00,VWS V15.00,2017-02-23 12:54:00,
2017-02-23 04:59:00,23.0,16.0,30.02,West,270,4.0,4.0,74,0.00,,---,0.00,VWS V15.00,2017-02-23 12:59:00,
2017-02-23 05:04:00,23.1,16.1,30.02,West,280,0.0,3.0,74,0.00,,---,0.00,VWS V15.00,2017-02-23 13:04:00,
2017-02-23 05:09:00,23.2,16.5,30.02,West,279,0.0,2.0,75,0.00,,---,0.00,VWS V15.00,2017-02-23 13:09:00,
2017-02-23 05:14:00,23.1,16.4,30.03,West,279,3.0,3.0,75,0.00,,---,0.00,VWS V15.00,2017-02-23 13:14:00,
2017-02-23 05:19:00,23.1,16.7,30.02,West,279,2.0,2.0,76,0.00,,---,0.00,VWS V15.00,2017-02-23 13:19:00,
2017-02-23 05:24:00,23.1,16.4,30.03,West,280,0.0,3.0,75,0.00,,---,0.00,VWS V15.00,2017-02-23 13:24:00,
2017-02-23 05:29:00,23.1,16.7,30.03,West,280,0.0,1.0,76,0.00,,---,0.00,VWS V15.00,2017-02-23 13:29:00,
2017-02-23 05:34:00,23.1,16.4,30.03,West,280,0.0,0.0,75,0.00,,---,0.00,VWS V15.00,2017-02-23 13:34:00,
2017-02-23 05:39:00,23.0,16.3,30.03,NNW,336,1.0,4.0,75,0.00,,---,0.00,VWS V15.00,2017-02-23 13:39:00,
2017-02-23 05:44:00,23.0,16.3,30.03,NNW,333,0.0,3.0,75,0.00,,---,0.00,VWS V15.00,2017-02-23 13:44:00,
2017-02-23 05:49:00,22.9,16.2,30.03,NW,321,2.0,3.0,75,0.00,,---,0.00,VWS V15.00,2017-02-23 13:49:00,
2017-02-23 05:54:00,22.8,16.4,30.03,NW,321,1.0,2.0,76,0.00,,---,0.00,VWS V15.00,2017-02-23 13:54:00,
2017-02-23 05:59:00,22.7,16.3,30.04,NW,321,2.0,2.0,76,0.00,,---,0.00,VWS V15.00,2017-02-23 13:59:00,
2017-02-23 06:04:00,22.6,16.5,30.04,North,360,1.0,5.0,77,0.00,,---,0.00,VWS V15.00,2017-02-23 14:04:00,
2017-02-23 06:09:00,22.7,16.6,30.04,North,10,2.0,4.0,77,0.00,,---,0.00,VWS V15.00,2017-02-23 14:09:00,
2017-02-23 06:14:00,22.7,16.9,30.04,North,5,2.0,4.0,78,0.00,,---,0.00,VWS V15.00,2017-02-23 14:14:00,
2017-02-23 06:19:00,22.8,17.3,30.04,North,5,3.0,4.0,79,0.00,,---,0.00,VWS V15.00,2017-02-23 14:19:00,
2017-02-23 06:24:00,22.8,17.3,30.04,NNE,13,5.0,5.0,79,0.00,,---,0.00,VWS V15.00,2017-02-23 14:24:00,
2017-02-23 06:29:00,22.9,17.7,30.04,NNE,31,5.0,7.0,80,0.00,,---,0.00,VWS V15.00,2017-02-23 14:29:00,
2017-02-23 06:34:00,22.9,18.0,30.04,NNE,19,6.0,7.0,81,0.00,,---,0.00,VWS V15.00,2017-02-23 14:34:00,
2017-02-23 06:39:00,23.0,18.3,30.04,NNE,21,5.0,6.0,82,0.00,,---,0.00,VWS V15.00,2017-02-23 14:39:00,
2017-02-23 06:44:00,23.1,18.7,30.05,NNE,18,5.0,8.0,83,0.00,,---,0.00,VWS V15.00,2017-02-23 14:44:00,